Zurück zum Katalog

SICRAL 2

AktivMilitärGEO
NORAD 40614·PAYLOAD·🇫🇷 France🇮🇹 Italy

Gestartet Apr 26, 2015 von Guiana Space Centre

Loading…

TLE

AktuellSource: Mike McCants

Epoche: Sep 14, 2026, 04:58 UTC

1 40614U 15022B   26257.20719805  .00000000  00000-0  00000-0 0    02
2 40614   0.0260 104.7650 0003453 359.8914   0.1086  1.00270000   333

Verfolge SICRAL 2 in Echtzeit mit AllMySat

Download on the App Store